TimeEDT,TemperatureF,Dew PointF,Humidity,Sea Level PressureIn,VisibilityMPH,Wind Direction,Wind SpeedMPH,Gust SpeedMPH,PrecipitationIn,Events,Conditions,WindDirDegrees,DateUTC
12:54 AM,46.4,44.6,93,30.14,10.0,Calm,Calm,-,N/A,,Clear,0,2011-10-24 04:54:00
1:54 AM,45.0,44.1,97,30.13,10.0,Calm,Calm,-,N/A,,Clear,0,2011-10-24 05:54:00
2:54 AM,44.1,43.0,96,30.12,8.0,Calm,Calm,-,N/A,,Clear,0,2011-10-24 06:54:00
3:54 AM,41.0,41.0,100,30.10,2.5,Calm,Calm,-,N/A,,Clear,0,2011-10-24 07:54:00
4:06 AM,42.8,42.8,100,30.10,6.0,Calm,Calm,-,N/A,,Clear,0,2011-10-24 08:06:00
4:54 AM,43.0,42.1,97,30.09,7.0,Calm,Calm,-,N/A,,Clear,0,2011-10-24 08:54:00
5:54 AM,42.1,41.0,96,30.10,10.0,Calm,Calm,-,N/A,,Clear,0,2011-10-24 09:54:00
6:54 AM,44.1,43.0,96,30.10,10.0,Calm,Calm,-,N/A,,Clear,0,2011-10-24 10:54:00
7:54 AM,44.1,43.0,96,30.11,7.0,Calm,Calm,-,N/A,,Clear,0,2011-10-24 11:54:00
8:54 AM,48.9,46.9,93,30.12,10.0,Calm,Calm,-,N/A,,Partly Cloudy,0,2011-10-24 12:54:00
9:54 AM,54.0,48.9,83,30.12,10.0,South,4.6,-,N/A,,Clear,180,2011-10-24 13:54:00
10:54 AM,60.1,46.9,62,30.11,10.0,SSW,4.6,-,N/A,,Clear,200,2011-10-24 14:54:00
11:54 AM,61.0,46.9,60,30.11,10.0,SW,5.8,-,N/A,,Mostly Cloudy,220,2011-10-24 15:54:00
12:54 PM,64.9,46.0,50,30.09,10.0,Variable,5.8,-,N/A,,Mostly Cloudy,0,2011-10-24 16:54:00
1:54 PM,66.2,44.6,46,30.06,10.0,SW,4.6,-,N/A,,Partly Cloudy,220,2011-10-24 17:54:00
2:54 PM,69.1,44.1,40,30.04,10.0,West,4.6,-,N/A,,Partly Cloudy,260,2011-10-24 18:54:00
3:54 PM,69.1,44.1,40,30.02,10.0,Calm,Calm,-,N/A,,Clear,0,2011-10-24 19:54:00
4:54 PM,69.1,45.0,42,30.00,10.0,SSW,8.1,-,N/A,,Clear,200,2011-10-24 20:54:00
5:54 PM,64.0,46.0,52,30.02,10.0,Calm,Calm,-,N/A,,Clear,0,2011-10-24 21:54:00
6:54 PM,57.9,48.9,72,30.04,10.0,Calm,Calm,-,N/A,,Overcast,0,2011-10-24 22:54:00
7:54 PM,62.6,46.4,55,30.07,10.0,Calm,Calm,-,N/A,Rain,Light Rain,0,2011-10-24 23:54:00
8:54 PM,54.0,48.0,80,30.09,10.0,Calm,Calm,-,0.00,,Scattered Clouds,0,2011-10-25 00:54:00
9:54 PM,55.9,46.0,69,30.10,10.0,Calm,Calm,-,N/A,,Clear,0,2011-10-25 01:54:00
10:54 PM,55.0,45.0,69,30.11,10.0,NW,3.5,-,N/A,,Clear,320,2011-10-25 02:54:00
11:54 PM,59.0,41.0,51,30.11,10.0,Variable,4.6,-,N/A,,Clear,0,2011-10-25 03:54:00